Lid_Strength_Index
4 4 2 2 2 2 3 3 3 3 3 3 3 3 3 3 3 7 9 8 10 13 11 10 11 14 15 16 19 17 17 17 21 25 26 26 28 23 24 22 20 21 21 23 28 27 22 17 15 16 15 15 14 14
4 4 3 2 2 2 3 3 3 3 3 3 3 3 3 3 4 6 10 8 8 12 11 8 8 8 9 13 14 14 16 20 15 19 22 23 24 25 27 25 17 23 19 21 20 19 15 15 14 14 14 14 15 14
5 4 4 2 2 2 3 3 4 4 4 3 3 3 4 4 4 7 11 11 12 14 12 14 14 11 9 10 10 16 13 12 13 14 21 23 24 21 27 24 21 17 16 18 18 17 16 15 14 14 14 13 13 13
5 5 4 3 2 2 3 3 4 4 4 3 4 4 4 4 5 7 10 12 13 17 19 17 10 13 11 11 11 11 12 12 11 16 24 22 24 16 21 19 19 18 17 20 19 15 15 14 13 13 13 13 13 14
5 5 4 4 3 3 3 3 4 4 4 3 4 4 4 5 6 9 10 10 11 13 20 16 14 14 10 12 12 12 12 15 20 20 23 22 18 19 19 18 19 17 17 17 19 15 15 14 13 13 13 13 14 15
6 5 5 5 4 3 3 4 4 4 4 4 4 4 5 6 8 12 16 12 10 12 18 24 15 15 11 12 13 12 12 14 16 22 24 22 16 18 23 25 18 16 16 14 16 15 15 15 16 16 15 17 17 16
6 5 5 4 5 4 3 4 4 4 4 4 4 4 5 7 11 15 16 12 9 13 19 19 21 13 12 12 14 15 14 15 23 18 24 20 17 21 18 23 18 18 16 16 17 15 16 16 15 15 15 17 19 21
6 6 5 4 5 5 4 4 4 4 4 4 4 5 6 6 9 14 10 10 12 18 21 24 22 18 13 15 15 13 16 24 20 18 18 22 24 18 21 19 20 21 21 20 18 21 18 18 19 21 22 22 23 22
6 6 5 5 4 5 5 4 4 4 4 4 6 7 11 15 18 13 8 11 15 17 24 30 25 25 15 17 16 17 16 22 21 19 22 19 28 22 20 20 24 21 20 19 27 26 25 21 20 24 24 25 23 25
6 6 6 5 4 5 6 5 4 4 4 5 10 15 20 15 10 11 16 19 19 24 26 27 31 22 18 20 18 23 19 28 28 25 21 20 22 20 21 23 24 23 23 23 22 23 26 26 23 25 22 22 20 21
6 6 6 6 5 5 5 6 4 4 6 11 18 20 15 13 18 23 24 23 26 25 23 29 26 19 17 23 25 20 27 27 25 27 26 30 26 23 25 23 22 25 23 21 26 24 23 21 20 23 26 25 25 25
5 6 6 6 5 5 5 6 6 9 11 12 15 15 19 22 25 24 29 30 27 24 26 24 24 23 23 22 24 22 27 22 29 29 26 28 23 24 28 27 28 27 23 23 28 25 24 21 20 20 21 24 25 27
5 5 5 6 6 5 5 5 7 10 11 15 18 21 21 26 27 26 27 28 29 27 23 23 24 22 22 23 23 25 28 27 31 26 29 24 24 25 28 31 30 34 32 27 28 31 30 28 29 24 24 28 27 28
5 5 5 5 6 5 5 5 8 10 13 17 20 22 23 29 26 25 23 22 22 22 22 25 24 24 29 27 26 27 30 30 31 31 26 24 24 26 29 31 29 28 28 26 25 28 27 26 25 28 28 27 26 27
5 5 5 5 5 5 6 7 8 13 16 19 22 25 27 26 30 30 29 25 25 18 22 24 26 23 31 27 30 31 30 31 28 24 24 23 26 28 29 30 29 28 26 25 28 27 27 29 29 27 33 30 29 28
5 5 6 5 5 5 6 7 10 14 19 22 30 29 34 28 29 28 28 24 23 19 23 23 28 28 30 28 30 27 27 26 22 25 23 28 28 29 29 28 27 28 26 27 27 28 28 28 27 27 32 33 31 29
5 9 5 5 5 5 7 11 12 14 15 22 26 34 28 28 24 23 22 20 17 19 22 25 25 25 27 31 29 27 25 22 23 24 26 25 24 25 26 28 28 26 26 25 29 28 28 29 29 30 27 29 31 31
8 7 5 5 5 8 10 11 13 14 17 22 24 27 30 27 25 24 23 18 17 21 22 21 24 28 26 25 25 22 22 24 27 25 23 24 24 28 26 23 26 26 27 28 27 28 28 27 26 24 24 28 30 32
7 6 5 5 9 11 13 14 13 18 21 26 27 27 24 25 24 21 18 17 21 19 21 23 24 24 22 21 20 22 23 20 18 19 21 25 26 26 25 28 26 26 26 27 27 24 24 23 22 23 25 27 26 29
5 5 4 6 7 12 15 15 14 19 21 21 24 24 21 22 21 19 17 19 19 19 23 25 23 21 19 18 18 18 17 17 16 16 17 22 27 25 23 25 26 27 27 29 29 27 28 28 29 26 26 26 26 27
5 5 5 7 10 11 14 15 17 18 21 20 23 22 23 21 19 19 18 18 19 21 22 21 20 18 19 18 18 16 16 16 15 13 15 20 24 26 27 28 28 28 25 26 24 26 26 24 26 25 26 26 25 26
7 4 8 7 10 11 13 15 18 20 19 22 21 22 22 22 21 18 16 19 20 20 20 19 18 17 17 15 16 15 16 17 19 20 20 18 20 20 21 22 24 22 22 21 23 22 24 25 26 27 26 28 27 28
5 8 9 10 12 14 18 14 19 22 22 21 19 21 24 23 20 16 20 23 22 21 18 18 17 16 14 14 14 15 16 15 16 17 17 18 19 20 22 23 21 19 20 22 24 25 25 26 26 27 28 28 28 29
7 10 11 12 14 18 17 19 19 21 21 21 19 23 28 26 23 23 25 25 21 23 19 16 15 16 16 16 14 13 15 13 15 18 19 16 17 18 21 22 25 25 25 26 26 26 27 27 26 27 28 28 28 28
12 11 11 17 17 22 24 23 24 23 22 21 25 26 26 28 28 28 26 22 22 20 17 16 15 15 14 15 18 20 24 21 17 16 19 17 19 23 24 26 28 27 28 25 27 28 30 28 28 28 28 28 27 27
14 12 14 17 21 18 24 25 25 26 25 27 29 29 29 27 26 23 23 21 21 21 21 20 17 17 21 23 22 23 25 27 22 18 22 23 21 21 23 24 25 24 29 27 26 27 28 29 28 28 27 27 26 26
15 14 14 21 20 21 22 23 24 22 28 27 28 28 25 26 23 23 30 31 30 30 28 28 27 28 29 29 28 29 28 28 26 25 28 28 29 29 27 26 26 26 29 28 28 27 27 28 28 28 27 27 26 25
12 12 14 17 19 23 23 21 20 20 26 27 24 25 23 22 22 34 33 31 30 29 28 30 32 33 32 31 32 30 29 29 28 28 28 28 30 30 30 29 27 25 30 29 28 28 27 28 28 27 26 27 28 26
11 10 12 15 20 22 26 24 26 32 32 21 24 27 34 36 35 35 32 31 30 29 31 32 32 34 32 31 31 30 30 29 26 27 27 28 29 29 31 30 29 29 30 28 23 26 27 28 27 27 26 27 28 27
11 10 14 19 24 28 39 38 39 38 36 36 36 35 35 35 33 31 31 32 32 33 35 36 35 33 32 30 30 31 31 32 31 29 27 28 29 32 32 30 31 32 31 29 26 24 22 25 25 27 28 29 30 29
19 21 27 30 33 33 33 33 37 36 35 35 34 35 36 34 32 31 32 32 32 33 34 35 35 34 33 33 33 32 31 32 33 33 35 36 36 36 35 34 32 30 29 29 28 27 27 27 28 28 29 30 31 30
25 26 28 32 31 29 30 32 34 35 37 36 37 35 34 32 35 33 32 33 34 36 35 36 36 37 36 34 35 35 32 36 35 34 34 33 32 31 30 31 30 28 27 26 27 27 27 28 29 30 31 32 32 32
23 24 27 28 29 30 32 30 31 34 35 37 38 38 38 34 35 34 31 32 34 35 36 34 34 32 32 33 33 33 31 32 28 25 26 26 26 26 29 28 27 26 26 27 27 27 28 29 31 32 32 32 33 34